User: anonymous   Login
Location: Newark
(43.0000°N, 1.6781°W)
Time: 09:35:10
(UTC+00:00)
Language:

Tiros 1 - Orbit

View from above orbital plane
View from above orbital plane
View from above satellite
View from above satellite

Ground track
Ground track

The orbit data is extracted from the following two-line orbital elements,

1 00029U 60002B   22272.86686163  .00000446  00000-0  96460-4 0  9991
2 00029  48.3807 329.9957 0024269 204.3308 155.6460 14.74744935341676
Epoch (UTC): 29 September 2022 20:48:16
Eccentricity: 0.0024269
inclination: 48.3807°
perigee height: 629 km
apogee height: 663 km
right ascension of ascending node: 329.9957°
argument of perigee: 204.3308°
revolutions per day: 14.74744935
mean anomaly at epoch: 155.6460°
orbit number at epoch: 34167

The dashed part of the orbit path shows where the satellite is in the earth's shadow,  

DLR